Location: Newark
(53.3503°N, 9.6158°W)
Time: 03:38:51
(UTC+00:00)

Envisat - Pass Details

Date: 30 October 2019
Orbit: 764 x 766 km, 98.1° (Epoch: 18 November)

Event Time Altitude Azimuth Distance (km) Brightness Sun altitude
Rises 18:00:22 0° 151° (SSE) 3,224 6.1 -7.9°
Reaches altitude 10° 18:02:41 10° 148° (SSE) 2,302 5.3 -8.2°
Maximum altitude 18:07:40 61° 70° (ENE) 868 3.0 -9.0°
Drops below altitude 10° 18:12:42 10° 350° (N) 2,317 5.5 -9.7°
Sets 18:15:02 0° 348° (NNW) 3,247 6.3 -10.0°
